sat.trackr.live / text

‹ back to catalog

STARLINK-36744

NORAD 67987 · 2026-039B

PAYLOAD ACTIVE UNKNOWN

§ Identity

Operator
Country
US
Launch date
2026-02-27
Launch site
AFETR
Launch vehicle
Mass (kg)
RCS (m²)

Purposes: comms

External: N2YO · Heavens-Above · Gunter

§ Orbital elements

Epoch: 2026-05-24T22:58:02.652096Z

Period
94.27 min
Inclination
43.0018°
Eccentricity
0.0001144
Mean motion
15.27581807 rev/d
Perigee alt
482.3 km
Apogee alt
483.8 km
Semi-major
6,861.2 km
B*
3.3704e-4
RAAN
338.5496°
Arg perigee
266.1343°
Mean anomaly
93.9378°
Rev number
1,336

§ Raw data

STARLINK-367441 67987U 26039B   26144.95697514  .00009024  00000+0  33704-3 0  99942 67987  43.0018 338.5496 0001144 266.1343  93.9378 15.27581807 13364

JSON: /api/v1/satellites/67987 · /tle

For live sub-satellite position, see the globe view (requires WebGL).

§ Visibility from observer

Set your observer location to see the next 7 days of passes ≥ 10°. The values pass through the URL so the page stays shareable.

No JS? Fill the form by hand. The geolocation button needs JavaScript.